Weather History for KBMG - January, 2012

Change the Weather History Date:

Sunday, January 1, 2012

  Actual Average Record
Temperature  
Mean Temperature 43 °F 29 °F  
Max Temperature 53 °F 38 °F 68 °F (2006)
Min Temperature 32 °F 21 °F 0 °F (1999)
Degree Days  
Heating Degree Days 22 36  
Month to date heating degree days 22 36  
Since 1 July heating degree days 1760 2109  
Cooling Degree Days 0 0  
Month to date cooling degree days 0 0  
Year to date cooling degree days 0 0  
Moisture  
Dew Point 29 °F    
Average Humidity 56    
Maximum Humidity 79    
Minimum Humidity 33    
Precipitation  
Precipitation T in 0.14 in 0.75 in (2011)
Month to date precipitation T 0.14  
Year to date precipitation T 0.14  
Sea Level Pressure  
Sea Level Pressure 29.96 in    
Wind  
Wind Speed 16 mph (West)    
Max Wind Speed 29 mph    
Max Gust Speed 41 mph    
Visibility 10 miles    
Events Rain    
T = Trace of Precipitation, MM = Missing Value Source: NWS Daily Summary

Daily Weather History Graph

Daily Weather History Graph

Search for Another Location

Airport or City:

Trip Planner

Search our weather history database for the weather conditions in past years. The results will help you decide how hot, cold, wet, or windy it might be!

Date:

Astronomy

Jan. 01, 2012 Rise Set
Actual Time 8:05 AM EST 5:34 PM EST
Civil Twilight 7:35 AM EST 6:04 PM EST
Nautical Twilight 7:02 AM EST 6:37 PM EST
Astronomical Twilight 6:29 AM EST 7:10 PM EST
Moon 12:21 PM EST (1/1) 1:02 AM EST (1/1)
Length of Visible Light 10h 28m
Length of Day
9h 28m
First Quarter, 54% of the Moon is Illuminated
Jan 1
First Quarter
Jan 9
Full
Jan 16
Last Quarter
Jan 23
New
Jan 30
First Quarter

Hourly Weather History & Observations

Time (EST) Temp. Windchill Dew Point Humidity Pressure Visibility Wind Dir Wind Speed Gust Speed Precip Events Conditions
12:53 AM 43.0 °F 37.2 °F 36.0 °F 76% 29.83 in 10.0 mi SSE 10.4 mph - N/A   Overcast
1:53 AM 44.1 °F 38.6 °F 36.0 °F 73% 29.79 in 10.0 mi SSE 10.4 mph - N/A   Overcast
2:53 AM 46.0 °F 41.9 °F 36.0 °F 68% 29.76 in 10.0 mi SSE 8.1 mph - N/A   Mostly Cloudy
4:53 AM 53.1 °F - 39.9 °F 61% 29.71 in 10.0 mi SSW 16.1 mph 24.2 mph N/A   Clear
5:53 AM 53.1 °F - 42.1 °F 66% 29.70 in 10.0 mi SW 19.6 mph 29.9 mph N/A   Overcast
6:53 AM 53.1 °F - 43.0 °F 69% 29.72 in 10.0 mi SW 16.1 mph 21.9 mph N/A   Overcast
7:07 AM 53.6 °F - 42.8 °F 67% 29.72 in 10.0 mi WSW 16.1 mph 32.2 mph N/A   Overcast
7:53 AM 50.0 °F - 41.0 °F 71% 29.77 in 10.0 mi West 17.3 mph 34.5 mph N/A   Overcast
8:27 AM 44.6 °F 36.9 °F 35.6 °F 71% 29.82 in 10.0 mi WNW 18.4 mph 33.4 mph N/A   Overcast
8:53 AM 43.0 °F 34.0 °F 34.0 °F 71% 29.86 in 10.0 mi West 21.9 mph 36.8 mph N/A   Overcast
9:53 AM 41.0 °F 32.8 °F 36.0 °F 82% 29.91 in 6.0 mi West 16.1 mph 28.8 mph 0.00 in Rain Light Rain
10:53 AM 41.0 °F 31.9 °F 33.1 °F 73% 29.94 in 10.0 mi West 19.6 mph 27.6 mph 0.00 in   Overcast
11:53 AM 39.9 °F 32.1 °F 33.1 °F 77% 29.98 in 10.0 mi WNW 13.8 mph 28.8 mph N/A   Overcast
12:53 PM 39.9 °F 30.5 °F 30.9 °F 70% 30.00 in 10.0 mi West 19.6 mph 33.4 mph N/A   Overcast
1:53 PM 42.1 °F 33.6 °F 28.9 °F 60% 30.01 in 10.0 mi West 18.4 mph 29.9 mph N/A   Mostly Cloudy
2:53 PM 42.1 °F 32.8 °F 24.1 °F 49% 30.04 in 10.0 mi West 21.9 mph 39.1 mph N/A   Partly Cloudy
3:53 PM 42.1 °F 34.5 °F 21.9 °F 45% 30.06 in 10.0 mi WNW 15.0 mph 27.6 mph N/A   Clear
4:53 PM 41.0 °F 33.1 °F 16.0 °F 36% 30.09 in 10.0 mi West 15.0 mph 33.4 mph N/A   Clear
5:53 PM 39.0 °F 28.3 °F 12.9 °F 34% 30.13 in 10.0 mi WNW 24.2 mph 36.8 mph N/A   Scattered Clouds
6:53 PM 36.0 °F 27.5 °F 17.1 °F 46% 30.17 in 10.0 mi WNW 12.7 mph 25.3 mph N/A   Mostly Cloudy
7:53 PM 35.1 °F 26.9 °F 16.0 °F 46% 30.20 in 10.0 mi WNW 11.5 mph 26.5 mph N/A   Partly Cloudy
8:53 PM 33.1 °F 23.4 °F 17.1 °F 52% 30.21 in 10.0 mi WNW 13.8 mph 19.6 mph N/A   Clear
9:53 PM 33.1 °F 24.4 °F 17.1 °F 52% 30.20 in 10.0 mi WNW 11.5 mph 24.2 mph N/A   Scattered Clouds
10:53 PM 33.1 °F 24.9 °F 18.0 °F 54% 30.19 in 10.0 mi West 10.4 mph 25.3 mph N/A   Mostly Cloudy
11:53 PM 32.0 °F 20.5 °F 19.0 °F 59% 30.19 in 10.0 mi WNW 18.4 mph 27.6 mph N/A   Overcast